Regional Weather Roundup
Issued by NWS Kansas City/Pleasant Hill, MO

Home | Current Version | Previous Version | Text Only | Print | Product List | Glossary On
Versions: 1 2 3 4 5 6 7 8 9 10 11 12 13 14 15 16 17 18 19 20 21 22 23 24 25 26 27 28 29 30 31 32 33 34 35 36 37 38 39 40 41 42 43 44 45 46 47 48 49 50
293
ASUS43 KEAX 220810
RWREAX

WEATHER ROUNDUP FOR EASTERN KANSAS AND NORTHWEST MISSOURI
NATIONAL WEATHER SERVICE KANSAS CITY/PLEASANT HILL MO
300 AM CDT FRI SEP 22 2017

KSZ040-057-103>105-MOZ028-029-037-043-220900-
...KANSAS CITY METROPOLITAN AREA...

CITY           SKY/WX    TMP DP  RH WIND       PRES   REMARKS
K.C. INTL      CLEAR     77  70  79 S13       29.93S
K.C. DOWNTOWN  CLEAR     80  71  74 S8        29.92F
LEES SUMMIT    CLEAR     76  71  85 S9        29.95S
OLATHE - IXD   CLEAR     75  69  81 S10       29.93F
OLATHE - OJC   CLEAR     73  70  90 S9        29.94S
LAWRENCE       CLEAR     77  71  82 SE12      29.90F

$$

MOZ001>008-011>017-020>025-030>033-038>040-044>046-053-054-220900-
...NORTHERN AND CENTRAL MISSOURI...

CITY           SKY/WX    TMP DP  RH WIND       PRES   REMARKS
ST. JOSEPH     CLEAR     78  72  81 S10       29.90S
MOSBY          MOSUNNY   73  70  88 SE3       29.94S
WARRENSBURG    CLEAR     72  66  83 S5        29.95S
WHITEMAN AFB   CLEAR     72  66  82 S7        29.95S
CLINTON        CLEAR     73  68  83 S6        29.96S
SEDALIA        CLEAR     74  70  87 SE6       29.99R
WARSAW         NOT AVBL
CHILLICOTHE      N/A     77  71  82 S7        29.95S
KIRKSVILLE     CLEAR     74  68  81 S8        29.99R

$$

MOZ041-047>049-056>058-063>065-088>090-097-220900-
...EASTERN AND SOUTHERN MISSOURI...

CITY           SKY/WX    TMP DP  RH WIND       PRES   REMARKS
ST. LOUIS INTL CLEAR     78  70  76 S8        30.02F
SPIRIT OF STL  CLEAR     71  69  93 CALM      30.01S
COLUMBIA       CLEAR     73  69  87 SE6       30.01S
JEFFERSON CITY CLEAR     74  67  78 E5        30.00R
ROLLA          CLEAR     72  69  90 S7        30.04S
OSAGE BEACH    CLEAR     72  68  87 SE3       30.01S
SPRINGFIELD    CLEAR     73  69  87 S8        30.00S
BRANSON        CLEAR     72  68  88 CALM      30.02S
JOPLIN         CLEAR     73  71  93 SE6       29.96S
WEST PLAINS    CLEAR     72  69  90 CALM      30.05F

$$

IAZ060-094-KSZ022-034>040-054-083-096-NEZ052-066-093-220900-
...KANSAS...SOUTHEAST NEBRASKA AND IOWA...

CITY           SKY/WX    TMP DP  RH WIND       PRES   REMARKS
TOPEKA         CLEAR     78  72  81 S7        29.89S
MANHATTAN      CLEAR     81  69  67 S14       29.85R
EMPORIA        CLEAR     75  69  81 S17       29.89F
CHANUTE        CLEAR     73  69  87 SE7       29.94S
WICHITA        CLEAR     79  70  74 S15       29.88R
OMAHA          PTCLDY    80  71  74 S15       29.82S
LINCOLN        CLEAR     80  70  71 S16G22    29.80S
FALLS CITY     CLEAR     79  71  76 S14       29.86S
LAMONI         CLEAR     76  70  82 S12       29.93S
DES MOINES     PTCLDY    78  70  76 S10       29.89S

$$





USA.gov is the U.S. government's official web portal to all federal, state and local government web resources and services.